Regional Weather Roundup
Issued by NWS State College, PA

Home | Current Version | Previous Version | Text Only | Print | Product List | Glossary Off
Versions: 1 2 3 4 5 6 7 8 9 10 11 12 13 14 15 16 17 18 19 20 21 22 23 24 25 26 27 28 29 30 31 32 33 34 35 36 37 38 39 40 41 42 43 44 45 46 47 48 49 50

000
ASUS41 KCTP 291703
RWRCTP

REGIONAL WEATHER ROUNDUP
NATIONAL WEATHER SERVICE STATE COLLEGE PA
100 PM EDT FRI AUG 29 2014

Note: "fair" indicates few or no clouds below 12,000 feet with no
significant weather and/or obstructions to visibility.

* = STATION THAT DOES NOT REPORT PRECIPITATION /E.G. RAIN...SNOW...ETC/
    THUNDER OR FOG.

PAZ002>004-007>009-013>016-020>023-029>032-291800-
WESTERN PENNSYLVANIA

CITY           SKY/WX    TMP DP  RH WIND       PRES   REMARKS
ERIE           SUNNY     74  47  38 E10       30.16F
MEADVILLE      SUNNY     70  50  49 VRB6      30.18F
FRANKLIN*      SUNNY     70  50  49 S9        30.20F
NEW CASTLE     FAIR      73  55  53 VRB5      30.18F
BEAVER COUNTY  SUNNY     72  50  46 SE3       30.18S
BUTLER*        SUNNY     72  54  53 SE6       30.20S
PITTSBURGH INT MOSUNNY   73  51  46 E6        30.16F
PITTSBURGH     SUNNY     73  53  49 VRB7      30.16F
INDIANA*       SUNNY     72  52  49 VRB3G13   30.22F
LATROBE        SUNNY     73  52  46 SE6       30.18F
WASHINGTON CO* SUNNY     73  55  53 E3        30.17F
$$

PAZ004>006-010>012-017>019-024>028-033>037-041-042-045-046-049>053-291800-
CENTRAL PENNSYLVANIA

CITY           SKY/WX    TMP DP  RH WIND       PRES   REMARKS
BRADFORD       MOSUNNY   66  47  50 S8        30.22F
DUBOIS         NOT AVBL
CLEARFIELD     SUNNY     69  49  48 VRB5      30.21F
JOHNSTOWN      SUNNY     68  49  50 S9        30.21F
ALTOONA        SUNNY     71  52  50 S8        30.21F
STATE COLLEGE  MOSUNNY   68  50  52 E8        30.21F
WILLIAMSPORT   MOSUNNY   72  51  47 VRB3      30.18F
SELINSGROVE    MOSUNNY   72  53  51 SW5       30.20F
FT INDIANTOWN  MOSUNNY   73  51  45 S8        30.20F
CAPITAL CITY   MOSUNNY   71  46  40 VRB3      30.20F
HARRISBURG     PTSUNNY   75  50  41 SW3       30.19F
YORK           SUNNY     75  53  46 N5        30.20F
$$

PAZ038>040-043-044-047-048-054-055-060>062-067>071-291800-
EASTERN PENNSYLVANIA

CITY           SKY/WX    TMP DP  RH WIND       PRES   REMARKS
SCRANTON       SUNNY     71  51  49 CALM      30.20F
MOUNT POCONO   MOSUNNY   67  48  50 CALM      30.22F
ALLENTOWN      MOSUNNY   75  52  44 NW6       30.19F
QUAKERTOWN*    MOSUNNY   73  50  43 MISG      30.20F
READING        MOSUNNY   75  50  41 VRB3      30.18F
LANCASTER      MOSUNNY   73  48  41 SE7       30.20F
COATESVILLE    MOSUNNY   72  52  49 N3        30.21F
POTTSTOWN      SUNNY     75  49  39 NE7       30.20F
BLUE BELL      SUNNY     77  50  38 SE3       30.18F
DOYLESTOWN     MOSUNNY   74  50  42 VRB7      30.18F
WILLOW GROVE   NOT AVBL
NORTH PHILA    SUNNY     78  46  32 NE9       30.20F
PHILADELPHIA   PTSUNNY   78  48  34 CALM      30.18F
$$


USA.gov is the U.S. government's official web portal to all federal, state and local government web resources and services.